This is the latest recevied weather packets stored in our database for station/object KI4BSX. If no packets are shown the sender has not sent any weather packets the latest 10 day(s).
| Time | Temp. | Humidity | Pressure | Rain* | Wind** | Luminosity | Snow |
|---|---|---|---|---|---|---|---|
| 1777657962 | 19.44° C | 59% | 1017 hPa | 0 mm | - | - | - |
| 1777657658 | 18.89° C | 59% | 1017.3 hPa | 0 mm | - | - | - |
| 1777657356 | 18.33° C | 59% | 1017.1 hPa | 0 mm | - | - | - |
| 1777657053 | 18.89° C | 59% | 1017 hPa | 0 mm | - | - | - |
| 1777656750 | 18.33° C | 59% | 1017 hPa | 0 mm | - | - | - |
| 1777656446 | 17.78° C | 59% | 1017.1 hPa | 0 mm | - | - | - |
| 1777656141 | 17.78° C | 59% | 1017.2 hPa | 0 mm | - | - | - |
| 1777655838 | 17.78° C | 59% | 1017.2 hPa | 0 mm | - | - | - |
| 1777655535 | 17.78° C | 59% | 1017.2 hPa | 0 mm | - | - | - |
| 1777655232 | 18.33° C | 58% | 1017.4 hPa | 0 mm | - | - | - |
| 1777654928 | 18.33° C | 59% | 1017.4 hPa | 0 mm | - | - | - |
| 1777654626 | 17.78° C | 60% | 1017.3 hPa | 0 mm | - | - | - |
| 1777654323 | 17.22° C | 59% | 1017.3 hPa | 0 mm | - | - | - |
| 1777654021 | 17.22° C | 60% | 1017.3 hPa | 0 mm | - | - | - |
| 1777653717 | 17.22° C | 60% | 1017.3 hPa | 0 mm | - | - | - |
| 1777653414 | 17.22° C | 60% | 1017.4 hPa | 0 mm | - | - | - |
| 1777653111 | 16.67° C | 61% | 1017.4 hPa | 0 mm | - | - | - |
| 1777652807 | 16.11° C | 61% | 1017.2 hPa | 0 mm | - | - | - |
| 1777652504 | 16.11° C | 61% | 1017.5 hPa | 0 mm | - | - | - |
| 1777652201 | 16.11° C | 61% | 1017.5 hPa | 0 mm | - | - | - |
| 1777651898 | 16.11° C | 61% | 1017.7 hPa | 0 mm | - | - | - |
| 1777651594 | 16.11° C | 61% | 1017.5 hPa | 0 mm | - | - | - |
| 1777651292 | 16.11° C | 61% | 1017.5 hPa | 0 mm | - | - | - |
| 1777650988 | 16.11° C | 61% | 1017.6 hPa | 0 mm | - | - | - |
| 1777650685 | 16.11° C | 61% | 1017.8 hPa | 0 mm | - | - | - |
* Rain latest hour (hover to see other rain measurements)
** Current wind speed in m/s (hover to see current wind gust speed)